| time (UTC) | temp C | wind direction | speed KPH | gust KPH | rain 1hr cm | rain 24hr cm | rain mn cm | humidity % | barometer mb |
| 20260507124543 | 0 | 280 | 0.0 | 1.6 | 0.00 | 0.00 | 0.00 | 69 | 1008.9 |
| 20260507123051 | -2 | 280 | 1.6 | 4.8 | 0.00 | 0.00 | 0.00 | 71 | 1008.8 |
| 20260507121541 | -3 | 280 | 3.2 | 4.8 | 0.00 | 0.00 | 0.00 | 71 | 1008.7 |
| 20260507120034 | -3 | 280 | 3.2 | 6.4 | 0.00 | 0.00 | 0.00 | 70 | 1008.5 |
| 20260507114533 | -3 | 280 | 1.6 | 4.8 | 0.00 | 0.00 | 0.00 | 72 | 1008.2 |
| 20260507113035 | -3 | 280 | 0.0 | 1.6 | 0.00 | 0.00 | 0.00 | 71 | 1007.9 |
| 20260507111531 | -2 | 280 | 0.0 | 3.2 | 0.00 | 0.00 | 0.00 | 67 | 1008.0 |
| 20260507110030 | -3 | 280 | 3.2 | 6.4 | 0.00 | 0.00 | 0.00 | 68 | 1008.0 |
| 20260507104526 | -2 | 280 | 3.2 | 6.4 | 0.00 | 0.00 | 0.00 | 63 | 1007.8 |
| 20260507103025 | -2 | 280 | 0.0 | 3.2 | 0.00 | 0.00 | 0.00 | 64 | 1007.7 |
| 20260507101530 | -1 | 280 | 0.0 | 1.6 | 0.00 | 0.00 | 0.00 | 62 | 1007.6 |
| 20260507100026 | 0 | 280 | 4.8 | 6.4 | 0.00 | 0.00 | 0.00 | 59 | 1007.5 |
| 20260507094521 | 0 | 280 | 0.0 | 0.0 | 0.00 | 0.00 | 0.00 | 60 | 1007.7 |
| 20260507093033 | 0 | 280 | 0.0 | 0.0 | 0.00 | 0.00 | 0.00 | 57 | 1007.7 |
| 20260507091516 | 0 | 280 | 0.0 | 0.0 | 0.00 | 0.00 | 0.00 | 61 | 1007.5 |
| 20260507090028 | 0 | 280 | 0.0 | 0.0 | 0.00 | 0.00 | 0.00 | 61 | 1007.6 |
| 20260507084515 | 0 | 280 | 0.0 | 0.0 | 0.00 | 0.00 | 0.00 | 61 | 1007.7 |
| 20260507083031 | 0 | 280 | 0.0 | 0.0 | 0.00 | 0.00 | 0.00 | 59 | 1007.7 |
| 20260507081513 | -1 | 280 | 0.0 | 0.0 | 0.00 | 0.00 | 0.00 | 63 | 1007.8 |
| 20260507080009 | 0 | 280 | 1.6 | 3.2 | 0.00 | 0.00 | 0.00 | 62 | 1007.9 |
| 20260507074515 | 0 | 280 | 3.2 | 4.8 | 0.00 | 0.00 | 0.00 | 60 | 1007.9 |
| 20260507073005 | 1 | 280 | 0.0 | 0.0 | 0.00 | 0.00 | 0.00 | 57 | 1008.1 |
| 20260507071504 | 1 | 280 | 0.0 | 3.2 | 0.00 | 0.00 | 0.00 | 58 | 1008.1 |
| 20260507064558 | 1 | 280 | 3.2 | 4.8 | 0.00 | 0.00 | 0.00 | 57 | 1008.5 |
| 20260507063058 | 1 | 280 | 0.0 | 3.2 | 0.00 | 0.00 | 0.00 | 54 | 1008.4 |
| 20260507061551 | 1 | 280 | 0.0 | 0.0 | 0.00 | 0.00 | 0.00 | 56 | 1008.6 |
| 20260507060049 | 1 | 280 | 1.6 | 1.6 | 0.00 | 0.00 | 0.00 | 56 | 1008.6 |
| 20260507054555 | 2 | 280 | 0.0 | 3.2 | 0.00 | 0.00 | 0.00 | 52 | 1008.5 |
| 20260507053049 | 3 | 280 | 8.0 | 9.7 | 0.00 | 0.00 | 0.00 | 47 | 1008.5 |
| 20260507051547 | 3 | 280 | 8.0 | 9.7 | 0.00 | 0.00 | 0.00 | 48 | 1008.3 |
| 20260507050047 | 4 | 280 | 4.8 | 6.4 | 0.00 | 0.00 | 0.00 | 46 | 1008.4 |
| 20260507044543 | 5 | 280 | 4.8 | 4.8 | 0.00 | 0.00 | 0.00 | 43 | 1008.7 |
| 20260507043043 | 4 | 280 | 6.4 | 9.7 | 0.00 | 0.00 | 0.00 | 48 | 1008.9 |
| 20260507041542 | 3 | 280 | 6.4 | 8.0 | 0.00 | 0.00 | 0.00 | 50 | 1008.9 |
| 20260507040053 | 5 | 280 | 0.0 | 3.2 | 0.00 | 0.00 | 0.00 | 44 | 1009.0 |
| 20260507034547 | 3 | 280 | 0.0 | 0.0 | 0.00 | 0.00 | 0.00 | 49 | 1009.3 |
| 20260507033043 | 5 | 280 | 0.0 | 6.4 | 0.00 | 0.00 | 0.00 | 47 | 1009.4 |
| 20260507031539 | 6 | 280 | 1.6 | 3.2 | 0.00 | 0.00 | 0.00 | 38 | 1009.3 |
| 20260507030039 | 6 | 280 | 0.0 | 4.8 | 0.00 | 0.00 | 0.00 | 37 | 1009.4 |
| 20260507024538 | 6 | 280 | 1.6 | 1.6 | 0.00 | 0.00 | 0.00 | 37 | 1009.3 |
| 20260507023037 | 6 | 280 | 0.0 | 0.0 | 0.00 | 0.00 | 0.00 | 38 | 1009.3 |
| 20260507021536 | 8 | 280 | 0.0 | 1.6 | 0.00 | 0.00 | 0.00 | 32 | 1009.4 |
| 20260507020036 | 9 | 280 | 3.2 | 4.8 | 0.00 | 0.00 | 0.00 | 30 | 1009.4 |
| 20260507014535 | 9 | 280 | 3.2 | 4.8 | 0.00 | 0.00 | 0.00 | 30 | 1009.5 |
| 20260507013038 | 9 | 280 | 3.2 | 4.8 | 0.00 | 0.00 | 0.00 | 32 | 1009.6 |
| 20260507011539 | 10 | 280 | 1.6 | 8.0 | 0.00 | 0.00 | 0.00 | 31 | 1009.7 |
| 20260507010032 | 11 | 280 | 4.8 | 11.3 | 0.00 | 0.00 | 0.00 | 27 | 1009.8 |
| 20260507004531 | 12 | 280 | 8.0 | 16.1 | 0.00 | 0.00 | 0.00 | 24 | 1009.8 |
| 20260507003129 | 12 | 280 | 11.3 | 16.1 | 0.00 | 0.00 | 0.00 | 22 | 1010.0 |
| 20260507001530 | 12 | 280 | 16.1 | 24.1 | 0.00 | 0.00 | 0.00 | 22 | 1010.1 |
| 20260507000026 | 12 | 280 | 11.3 | 17.7 | 0.00 | 0.00 | 0.00 | 23 | 1010.3 |
| 20260506234530 | 12 | 280 | 12.9 | 20.9 | 0.00 | 0.00 | 0.00 | 22 | 1010.7 |
| 20260506233021 | 12 | 280 | 17.7 | 24.1 | 0.00 | 0.00 | 0.00 | 21 | 1010.9 |
| 20260506231521 | 12 | 280 | 11.3 | 22.5 | 0.00 | 0.00 | 0.00 | 22 | 1010.9 |
| 20260506230020 | 12 | 280 | 19.3 | 27.4 | 0.00 | 0.00 | 0.00 | 21 | 1011.2 |
| 20260506224526 | 12 | 280 | 17.7 | 27.4 | 0.00 | 0.00 | 0.00 | 19 | 1011.3 |
| 20260506223017 | 12 | 280 | 19.3 | 27.4 | 0.00 | 0.00 | 0.00 | 21 | 1011.5 |
| 20260506221516 | 12 | 280 | 16.1 | 24.1 | 0.00 | 0.00 | 0.00 | 22 | 1011.7 |
| 20260506220015 | 11 | 280 | 8.0 | 20.9 | 0.00 | 0.00 | 0.00 | 23 | 1011.9 |
| 20260506214511 | 12 | 280 | 20.9 | 27.4 | 0.00 | 0.00 | 0.00 | 21 | 1012.3 |
| 20260506213018 | 12 | 280 | 16.1 | 27.4 | 0.00 | 0.00 | 0.00 | 22 | 1012.5 |
| 20260506211509 | 11 | 280 | 19.3 | 33.8 | 0.00 | 0.00 | 0.00 | 22 | 1012.7 |
| 20260506210007 | 11 | 280 | 12.9 | 29.0 | 0.00 | 0.00 | 0.00 | 23 | 1013.0 |
| 20260506204506 | 11 | 280 | 11.3 | 33.8 | 0.00 | 0.00 | 0.00 | 25 | 1013.2 |
| 20260506203004 | 11 | 280 | 16.1 | 32.2 | 0.00 | 0.00 | 0.00 | 22 | 1013.5 |
| 20260506201502 | 11 | 280 | 24.1 | 37.0 | 0.00 | 0.00 | 0.00 | 22 | 1013.6 |
| 20260506200059 | 11 | 280 | 17.7 | 25.7 | 0.00 | 0.00 | 0.00 | 23 | 1013.7 |
| 20260506194557 | 11 | 280 | 11.3 | 27.4 | 0.00 | 0.00 | 0.00 | 25 | 1013.9 |
| 20260506193055 | 10 | 280 | 19.3 | 35.4 | 0.00 | 0.00 | 0.00 | 25 | 1014.1 |
| 20260506191554 | 10 | 280 | 9.7 | 27.4 | 0.00 | 0.00 | 0.00 | 29 | 1014.4 |
| 20260506190055 | 10 | 280 | 17.7 | 32.2 | 0.00 | 0.00 | 0.00 | 27 | 1014.5 |
| 20260506184556 | 10 | 280 | 16.1 | 25.7 | 0.00 | 0.00 | 0.00 | 26 | 1014.6 |
| 20260506183048 | 10 | 280 | 22.5 | 37.0 | 0.00 | 0.00 | 0.00 | 25 | 1014.9 |
| 20260506181545 | 10 | 280 | 17.7 | 30.6 | 0.00 | 0.00 | 0.00 | 27 | 1015.2 |
| 20260506180045 | 10 | 280 | 14.5 | 29.0 | 0.00 | 0.00 | 0.00 | 28 | 1015.4 |
| 20260506174543 | 9 | 280 | 16.1 | 30.6 | 0.00 | 0.00 | 0.00 | 27 | 1015.5 |
| 20260506173051 | 9 | 280 | 17.7 | 30.6 | 0.00 | 0.00 | 0.00 | 26 | 1015.8 |
| 20260506171538 | 8 | 280 | 14.5 | 29.0 | 0.00 | 0.00 | 0.00 | 27 | 1015.9 |
| 20260506170035 | 7 | 280 | 16.1 | 27.4 | 0.00 | 0.00 | 0.00 | 28 | 1016.0 |
| 20260506164536 | 7 | 280 | 19.3 | 29.0 | 0.00 | 0.00 | 0.00 | 30 | 1016.2 |
| 20260506163053 | 8 | 280 | 17.7 | 27.4 | 0.00 | 0.00 | 0.00 | 33 | 1016.1 |
| 20260506161530 | 7 | 280 | 12.9 | 30.6 | 0.00 | 0.00 | 0.00 | 29 | 1016.2 |
| 20260506160030 | 7 | 280 | 17.7 | 27.4 | 0.00 | 0.00 | 0.00 | 29 | 1016.3 |
| 20260506154535 | 7 | 280 | 19.3 | 30.6 | 0.00 | 0.00 | 0.00 | 31 | 1016.5 |
| 20260506153029 | 7 | 280 | 22.5 | 32.2 | 0.00 | 0.00 | 0.00 | 32 | 1016.7 |
| 20260506151524 | 6 | 280 | 22.5 | 29.0 | 0.00 | 0.00 | 0.00 | 35 | 1016.7 |
| 20260506150019 | 6 | 280 | 20.9 | 35.4 | 0.00 | 0.00 | 0.00 | 36 | 1016.8 |
| 20260506144516 | 5 | 280 | 20.9 | 30.6 | 0.00 | 0.00 | 0.00 | 42 | 1017.0 |
| 20260506143014 | 3 | 280 | 16.1 | 22.5 | 0.00 | 0.00 | 0.00 | 48 | 1017.1 |
| 20260506141506 | 2 | 280 | 12.9 | 19.3 | 0.00 | 0.00 | 0.00 | 54 | 1017.1 |
| 20260506140008 | 1 | 280 | 11.3 | 19.3 | 0.00 | 0.00 | 0.00 | 57 | 1017.2 |
| 20260506134504 | 0 | 280 | 11.3 | 17.7 | 0.00 | 0.00 | 0.00 | 60 | 1017.2 |
| 20260506133100 | 0 | 280 | 12.9 | 17.7 | 0.00 | 0.00 | 0.00 | 62 | 1017.2 |
| 20260506131608 | -1 | 280 | 8.0 | 16.1 | 0.00 | 0.00 | 0.00 | 66 | 1017.1 |
| 20260506130058 | -2 | 280 | 8.0 | 11.3 | 0.00 | 0.00 | 0.00 | 69 | 1017.2 |